When you browse on this site, cookies collect data to enhance your experience and personalize the content and advertising you see.
Visit our Privacy Policy to learn more. By continuing to use the site, you agree to this use of cookies and data.
  • In United Kingdom
  • List of Countries
  • For 7 days
  • Water Temperature
  • Weather Map
  • Weather Widgets
  • user-avatar
    Login

    Hourly Weather Burgas

    Today, 18 October, Friday

    Time Temperature Precipitation Wind Pressure Humidity
    00:00 +14°C° 0 mm 0 mps 762 mmHg 90%
    01:00 +13°C° 0 mm 0 mps 762 mmHg 90%
    02:00 +13°C° 0 mm 0 mps 762 mmHg 88%
    03:00 +13°C° 0 mm 0 mps 762 mmHg 87%
    04:00 +13°C° 0 mm 0 mps 762 mmHg 87%
    05:00 +13°C° 0 mm 0 mps 762 mmHg 86%
    06:00 +14°C° 0 mm 0 mps 762 mmHg 82%
    07:00 +15°C° 0 mm 0 mps 762 mmHg 77%
    08:00 +16°C° 0 mm 0 mps 762 mmHg 75%
    09:00 +18°C° 0 mm 0 mps 762 mmHg 68%
    10:00 +22°C° 0 mm 1 mps 762 mmHg 61%
    11:00 +23°C° 0 mm 1 mps 762 mmHg 54%
    12:00 +24°C° 0 mm 1 mps 762 mmHg 51%
    13:00 +25°C° 0 mm 1 mps 761 mmHg 49%
    14:00 +25°C° 0 mm 2 mps 761 mmHg 47%
    15:00 +24°C° 0 mm 2 mps 761 mmHg 55%
    16:00 +21°C° 0 mm 2 mps 761 mmHg 63%
    17:00 +20°C° 0 mm 2 mps 761 mmHg 71%
    18:00 +19°C° 0 mm 2 mps 761 mmHg 77%
    19:00 +18°C° 0 mm 2 mps 761 mmHg 82%
    20:00 +17°C° 0 mm 2 mps 761 mmHg 88%
    21:00 +16°C° 0 mm 1 mps 761 mmHg 88%
    22:00 +16°C° 0 mm 1 mps 761 mmHg 88%
    23:00 +15°C° 0 mm 0 mps 761 mmHg 87%

    Tomorrow, 19 October, Saturday

    Time Temperature Precipitation Wind Pressure Humidity
    00:00 +15°C° 0 mm 0 mps 761 mmHg 87%
    01:00 +14°C° 0 mm 0 mps 761 mmHg 87%
    02:00 +14°C° 0 mm 0 mps 761 mmHg 87%
    03:00 +14°C° 0 mm 0 mps 761 mmHg 87%
    04:00 +14°C° 0 mm 0 mps 761 mmHg 86%
    05:00 +14°C° 0 mm 0 mps 761 mmHg 86%
    06:00 +15°C° 0 mm 0 mps 762 mmHg 82%
    07:00 +15°C° 0 mm 0 mps 762 mmHg 79%
    08:00 +16°C° 0 mm 0 mps 762 mmHg 75%
    09:00 +18°C° 0 mm 0 mps 762 mmHg 68%
    10:00 +22°C° 0 mm 1 mps 762 mmHg 61%
    11:00 +24°C° 0 mm 1 mps 762 mmHg 53%
    12:00 +24°C° 0 mm 2 mps 762 mmHg 51%
    13:00 +25°C° 0 mm 2 mps 762 mmHg 50%
    14:00 +26°C° 0 mm 2 mps 762 mmHg 48%
    15:00 +24°C° 0 mm 2 mps 761 mmHg 56%
    16:00 +23°C° 0 mm 2 mps 761 mmHg 63%
    17:00 +20°C° 0 mm 3 mps 761 mmHg 71%
    18:00 +19°C° 0 mm 2 mps 762 mmHg 76%
    19:00 +18°C° 0 mm 2 mps 762 mmHg 81%
    20:00 +17°C° 0 mm 2 mps 762 mmHg 85%
    21:00 +16°C° 0 mm 2 mps 762 mmHg 86%
    22:00 +16°C° 0 mm 1 mps 763 mmHg 86%
    23:00 +16°C° 0 mm 1 mps 763 mmHg 87%

    Day after tomorrow, 20 October, Sunday

    Time Temperature Precipitation Wind Pressure Humidity
    00:00 +16°C° 0 mm 1 mps 763 mmHg 87%
    01:00 +15°C° 0 mm 1 mps 763 mmHg 87%
    02:00 +14°C° 0 mm 0 mps 763 mmHg 87%
    03:00 +14°C° 0 mm 0 mps 763 mmHg 87%
    04:00 +14°C° 0 mm 0 mps 763 mmHg 87%
    05:00 +14°C° 0 mm 0 mps 763 mmHg 87%
    06:00 +15°C° 0 mm 0 mps 763 mmHg 83%
    07:00 +15°C° 0 mm 0 mps 763 mmHg 80%
    08:00 +16°C° 0 mm 0 mps 763 mmHg 76%
    09:00 +20°C° 0 mm 1 mps 763 mmHg 68%
    10:00 +22°C° 0 mm 1 mps 764 mmHg 61%
    11:00 +24°C° 0 mm 2 mps 764 mmHg 53%
    12:00 +24°C° 0 mm 2 mps 763 mmHg 52%
    13:00 +25°C° 0 mm 3 mps 763 mmHg 51%
    14:00 +25°C° 0 mm 3 mps 763 mmHg 50%
    15:00 +24°C° 0 mm 3 mps 763 mmHg 57%
    16:00 +21°C° 0 mm 3 mps 763 mmHg 65%
    17:00 +19°C° 0 mm 2 mps 763 mmHg 72%
    18:00 +18°C° 0 mm 2 mps 763 mmHg 77%
    19:00 +17°C° 0 mm 2 mps 763 mmHg 83%
    20:00 +16°C° 0 mm 2 mps 764 mmHg 88%
    21:00 +16°C° 0 mm 1 mps 764 mmHg 88%
    22:00 +16°C° 0 mm 1 mps 764 mmHg 89%
    23:00 +15°C° 0 mm 1 mps 764 mmHg 89%

    21 October, Monday

    Time Temperature Precipitation Wind Pressure Humidity
    00:00 +15°C° 0 mm 1 mps 764 mmHg 89%
    01:00 +14°C° 0 mm 0 mps 764 mmHg 89%
    02:00 +14°C° 0 mm 0 mps 764 mmHg 89%
    03:00 +13°C° 0 mm 0 mps 764 mmHg 88%
    04:00 +13°C° 0 mm 0 mps 764 mmHg 88%
    05:00 +13°C° 0 mm 0 mps 764 mmHg 87%
    06:00 +14°C° 0 mm 0 mps 764 mmHg 83%
    07:00 +15°C° 0 mm 0 mps 764 mmHg 79%
    08:00 +16°C° 0 mm 0 mps 764 mmHg 75%
    09:00 +20°C° 0 mm 1 mps 764 mmHg 68%
    10:00 +21°C° 0 mm 1 mps 764 mmHg 60%
    11:00 +23°C° 0 mm 2 mps 764 mmHg 53%
    12:00 +24°C° 0 mm 2 mps 764 mmHg 52%
    13:00 +24°C° 0 mm 2 mps 764 mmHg 50%
    14:00 +25°C° 0 mm 3 mps 764 mmHg 49%
    15:00 +22°C° 0 mm 3 mps 763 mmHg 57%
    16:00 +21°C° 0 mm 2 mps 763 mmHg 64%
    17:00 +19°C° 0 mm 2 mps 763 mmHg 71%
    18:00 +18°C° 0 mm 2 mps 763 mmHg 76%
    19:00 +18°C° 0 mm 1 mps 763 mmHg 81%
    20:00 +16°C° 0 mm 1 mps 764 mmHg 85%
    21:00 +16°C° 0 mm 1 mps 764 mmHg 86%
    22:00 +16°C° 0 mm 1 mps 764 mmHg 86%
    23:00 +14°C° 0 mm 0 mps 764 mmHg 87%

    22 October, Tuesday

    Time Temperature Precipitation Wind Pressure Humidity
    00:00 +14°C° 0 mm 0 mps 764 mmHg 86%
    01:00 +14°C° 0 mm 0 mps 763 mmHg 86%
    02:00 +14°C° 0 mm 0 mps 763 mmHg 86%
    03:00 +14°C° 0 mm 0 mps 763 mmHg 85%
    04:00 +14°C° 0 mm 1 mps 763 mmHg 85%
    05:00 +14°C° 0 mm 1 mps 763 mmHg 84%
    06:00 +15°C° 0 mm 1 mps 764 mmHg 80%
    07:00 +16°C° 0 mm 1 mps 764 mmHg 76%
    08:00 +18°C° 0 mm 1 mps 764 mmHg 72%
    09:00 +20°C° 0 mm 1 mps 764 mmHg 63%
    10:00 +22°C° 0 mm 1 mps 764 mmHg 54%
    11:00 +24°C° 0 mm 1 mps 764 mmHg 46%
    12:00 +24°C° 0 mm 2 mps 764 mmHg 43%
    13:00 +25°C° 0 mm 2 mps 763 mmHg 40%
    14:00 +26°C° 0 mm 3 mps 763 mmHg 38%
    15:00 +24°C° 0 mm 2 mps 763 mmHg 44%
    16:00 +21°C° 0 mm 2 mps 763 mmHg 51%
    17:00 +20°C° 0 mm 2 mps 763 mmHg 58%
    18:00 +19°C° 0 mm 2 mps 763 mmHg 63%
    19:00 +18°C° 0 mm 2 mps 763 mmHg 68%
    20:00 +16°C° 0 mm 1 mps 763 mmHg 73%
    21:00 +16°C° 0 mm 1 mps 763 mmHg 75%
    22:00 +16°C° 0 mm 1 mps 763 mmHg 76%
    23:00 +15°C° 0 mm 1 mps 763 mmHg 78%

    23 October, Wednesday

    Time Temperature Precipitation Wind Pressure Humidity
    00:00 +15°C° 0 mm 1 mps 763 mmHg 78%
    01:00 +15°C° 0 mm 1 mps 763 mmHg 78%
    02:00 +15°C° 0 mm 1 mps 763 mmHg 79%
    03:00 +15°C° 0 mm 1 mps 764 mmHg 79%
    04:00 +14°C° 0 mm 1 mps 764 mmHg 79%
    05:00 +14°C° 0 mm 1 mps 764 mmHg 79%
    06:00 +15°C° 0 mm 1 mps 764 mmHg 75%
    07:00 +16°C° 0 mm 1 mps 764 mmHg 71%
    08:00 +16°C° 0 mm 2 mps 764 mmHg 67%
    09:00 +18°C° 0 mm 2 mps 764 mmHg 58%
    10:00 +20°C° 0 mm 3 mps 764 mmHg 49%
    11:00 +22°C° 0 mm 4 mps 764 mmHg 41%
    12:00 +23°C° 0 mm 4 mps 764 mmHg 40%
    13:00 +23°C° 0 mm 4 mps 764 mmHg 38%
    14:00 +23°C° 0 mm 5 mps 764 mmHg 37%
    15:00 +22°C° 0 mm 4 mps 764 mmHg 44%
    16:00 +20°C° 0 mm 4 mps 763 mmHg 51%
    17:00 +19°C° 0 mm 3 mps 763 mmHg 59%
    18:00 +18°C° 0 mm 3 mps 764 mmHg 65%
    19:00 +17°C° 0 mm 2 mps 764 mmHg 71%
    20:00 +16°C° 0 mm 2 mps 764 mmHg 77%
    21:00 +16°C° 0 mm 2 mps 764 mmHg 78%
    22:00 +16°C° 0 mm 2 mps 764 mmHg 79%
    23:00 +15°C° 0 mm 1 mps 765 mmHg 79%
    Show more